Wind_Speed
17 17 16 17 19 21 20 19 19 19 19 20 19 19 19 19 20 21 21 22 22 22 22 23 21 19 20 20 20 19 17 16 17 21 19 18 17 17 17 17 16 16 17 18 17 17 16 15 15 15 15 15 14 12 10 9 8 6 6 5 4 3 2 1 0 1 2 2 2 2 2 2 2 3 3 3 3 4 4 4 4 3 2 2 3
16 17 17 17 20 22 22 21 20 18 18 19 19 20 21 20 20 20 22 23 24 23 22 22 21 19 21 22 21 19 18 15 14 18 20 19 18 18 18 18 17 17 18 19 19 18 18 17 17 16 16 16 15 14 12 11 10 9 8 7 6 5 3 2 1 1 1 1 1 1 0 0 1 2 2 2 2 3 3 3 4 3 3 3 4
13 15 16 17 19 21 22 22 20 19 19 20 21 23 25 25 25 23 23 23 24 24 22 22 21 21 21 21 20 19 19 17 15 17 19 18 18 18 19 20 19 18 19 20 20 20 20 19 18 18 17 17 17 16 15 13 12 11 10 9 8 7 5 4 3 2 2 2 2 1 2 2 1 1 1 1 1 2 3 3 3 3 3 4 4
14 15 16 17 18 19 20 21 20 19 20 20 22 24 26 28 28 27 25 25 26 26 24 23 23 23 23 21 21 21 21 19 18 18 19 19 17 19 21 22 21 21 20 21 22 22 22 22 21 20 19 19 18 18 17 15 14 13 12 11 10 9 8 7 5 4 3 3 3 2 3 3 2 2 1 1 0 1 2 3 3 4 4 4 5
15 17 18 18 19 19 19 20 20 20 20 21 22 23 24 24 25 26 26 25 25 26 25 24 24 24 24 23 22 23 23 21 20 20 20 20 18 17 20 22 23 23 23 23 24 24 24 24 23 22 21 21 20 19 18 17 16 15 14 13 12 11 10 9 8 6 5 4 4 3 3 4 3 2 2 2 1 1 1 2 3 4 4 4 5
16 17 18 18 19 19 19 20 20 21 21 21 22 23 22 21 21 21 23 23 23 24 26 25 25 25 25 24 24 24 23 23 23 23 23 23 21 18 18 20 23 25 26 26 26 25 26 26 26 25 24 23 22 21 20 19 18 17 15 14 13 13 12 11 11 9 7 6 5 5 4 5 4 4 3 2 2 1 1 2 2 3 4 4 5
16 17 17 17 17 18 19 19 19 19 19 20 20 21 21 19 19 19 21 21 20 22 25 26 27 28 27 25 25 25 24 24 25 26 26 25 24 21 19 19 21 23 26 28 27 27 27 27 28 28 26 25 24 22 21 20 20 18 17 16 15 14 13 13 13 11 10 8 7 6 6 6 6 5 5 4 3 3 2 2 2 2 4 4 5
18 18 17 17 17 18 18 19 19 19 19 19 19 20 20 19 19 19 20 21 20 20 22 25 26 28 29 28 27 27 26 26 26 28 28 27 26 25 23 21 21 21 24 27 29 30 29 29 28 29 29 28 26 24 23 22 21 20 19 18 16 16 15 14 14 13 13 11 10 8 7 7 6 6 6 5 5 4 4 4 4 3 3 4 4
18 18 18 18 18 19 19 19 19 20 20 20 20 20 21 20 20 20 20 21 21 21 21 23 24 25 27 30 30 29 29 28 27 28 29 29 29 28 26 25 23 22 22 24 27 31 31 30 30 30 30 30 29 27 25 24 23 22 21 19 19 18 17 16 15 15 14 14 12 11 9 8 8 7 7 7 6 6 6 5 5 5 4 4 4
18 18 19 19 19 20 21 21 20 21 21 20 21 21 21 22 22 22 22 22 22 22 22 22 23 22 23 26 30 32 33 32 30 28 29 30 30 30 29 28 27 26 25 24 25 28 31 33 32 31 31 31 31 30 28 26 24 24 23 22 21 20 19 18 17 16 16 15 14 13 12 11 10 9 8 8 8 7 7 7 6 6 6 5 4
18 18 19 19 20 20 21 22 22 22 22 22 22 23 24 24 24 25 25 25 25 26 26 24 23 23 22 23 26 29 32 34 33 32 31 31 30 31 31 30 30 29 28 26 25 26 29 33 34 33 32 32 32 31 30 28 26 25 24 24 23 22 21 20 19 18 17 17 16 15 14 13 12 11 10 10 9 9 8 8 8 7 7 6 5
17 18 19 20 20 21 22 22 23 24 24 24 24 25 26 26 26 26 27 28 29 29 30 29 27 26 25 24 24 25 27 29 31 32 33 33 32 32 32 32 31 31 30 29 27 26 27 31 35 35 34 33 33 32 31 29 28 27 26 25 25 24 23 22 21 20 19 18 17 17 16 15 14 13 12 12 11 10 10 9 9 8 8 7 6
17 18 19 20 20 21 22 23 24 25 26 26 26 26 27 28 28 29 29 29 30 31 32 32 30 30 29 27 27 27 27 27 28 30 31 33 34 33 34 34 33 32 32 31 31 30 28 29 33 35 35 34 34 34 33 31 29 27 27 27 27 26 25 24 23 22 21 20 19 18 17 17 16 15 14 14 13 13 12 11 10 10 9 8 7
19 19 20 21 21 22 22 23 24 25 26 27 27 28 28 28 29 30 31 31 31 32 33 32 32 32 31 30 29 30 29 28 28 29 30 32 33 34 35 36 35 33 33 33 33 33 31 29 30 33 35 36 36 35 34 33 30 28 28 28 28 28 28 26 25 24 24 22 21 20 19 18 17 16 16 15 15 15 14 13 12 12 11 9 8
22 22 23 23 23 23 23 23 23 23 24 25 27 28 29 30 30 31 32 32 33 33 33 32 32 33 32 30 30 31 31 31 30 30 31 31 32 34 36 36 36 34 34 34 34 35 34 32 30 31 33 36 37 36 35 35 33 31 30 29 29 30 29 29 27 26 25 24 23 22 21 20 19 18 17 17 16 16 16 15 14 13 13 12 11
25 25 25 26 25 25 25 24 24 24 24 25 26 27 29 30 31 31 31 32 33 33 33 32 31 32 32 31 30 30 31 33 33 31 32 33 32 33 35 35 36 36 36 36 35 36 36 35 33 32 32 34 36 35 35 36 36 34 32 31 30 30 30 30 30 28 27 26 25 24 23 22 21 20 19 19 18 17 17 16 16 15 14 14 14
27 28 28 29 29 28 27 26 25 25 25 26 27 28 29 30 32 33 33 33 33 33 33 32 30 31 31 31 31 30 30 32 33 32 33 34 33 33 34 35 37 37 38 39 37 36 36 37 36 33 32 33 34 35 34 36 38 37 35 33 32 32 32 32 32 31 30 28 27 27 26 25 23 22 21 20 20 19 18 17 17 16 15 15 15
29 30 31 31 31 31 30 29 27 27 27 28 29 30 31 32 34 35 35 35 34 33 33 33 31 30 31 31 31 31 29 30 31 32 34 36 35 35 35 36 38 38 40 41 40 38 38 39 38 35 34 34 34 35 34 35 37 38 37 35 35 34 34 33 33 33 32 31 30 29 28 27 26 25 24 23 21 20 20 19 18 17 16 16 16
29 30 31 32 32 32 32 31 30 29 29 29 30 31 33 34 35 36 36 36 36 35 34 34 33 32 31 31 31 32 31 31 30 31 33 35 36 36 36 37 38 40 42 43 42 41 41 41 40 38 37 36 36 36 35 35 36 37 37 37 37 37 36 35 35 34 34 33 32 31 30 29 29 28 26 25 24 23 22 21 20 19 18 17 17
30 31 32 33 33 33 33 33 32 31 31 31 32 32 33 35 36 37 38 38 38 37 36 35 34 33 32 32 31 32 33 32 31 30 30 33 36 37 38 38 39 40 41 44 44 43 43 43 41 40 39 38 38 38 37 36 36 36 36 36 37 38 38 37 37 36 35 35 35 34 33 32 31 30 29 28 26 25 24 23 22 21 20 19 18
30 31 32 33 33 33 33 33 33 32 32 33 33 34 35 36 37 38 39 40 39 39 37 36 35 33 33 33 32 32 32 32 32 31 30 31 34 36 38 40 41 40 41 44 46 46 46 45 44 42 41 40 41 39 38 39 37 35 35 36 37 38 39 39 39 38 37 37 36 36 35 34 33 32 31 30 29 28 27 25 24 23 22 21 20
30 31 32 33 33 34 33 32 33 33 33 34 34 35 36 37 38 39 40 41 41 40 39 38 37 35 33 32 32 32 32 32 32 32 32 31 32 35 37 39 41 41 41 43 45 47 48 47 47 46 45 43 43 43 42 41 39 37 35 36 38 38 39 40 40 40 40 39 38 38 37 37 36 34 34 33 32 30 29 27 26 25 24 23 22
31 31 32 33 34 34 34 33 33 33 34 35 35 36 36 37 38 39 40 41 42 42 41 40 39 37 35 33 32 32 32 32 33 33 33 32 32 33 36 39 41 41 42 43 44 45 48 49 49 48 47 45 46 47 46 46 45 42 39 39 39 39 39 40 40 41 41 41 40 39 39 39 38 37 36 35 34 33 32 30 28 27 26 25 24
31 32 32 33 34 34 34 34 34 34 35 36 37 37 38 38 38 39 40 41 42 43 42 42 41 39 37 35 33 32 33 33 34 34 35 34 33 33 34 38 40 41 42 45 45 44 45 48 49 48 48 46 47 48 47 47 48 46 42 42 41 40 40 40 40 41 42 42 42 41 40 40 40 39 38 37 36 35 34 33 31 29 28 27 26
32 33 33 34 34 35 35 34 34 35 36 37 38 39 39 39 39 39 40 41 42 43 43 43 42 41 40 38 36 34 35 36 36 37 37 37 36 35 34 37 40 40 42 46 46 44 43 44 47 49 50 48 47 47 45 44 46 45 42 42 43 42 41 41 40 41 42 42 43 43 42 42 42 41 41 39 38 37 37 35 34 32 30 29 28
34 34 34 35 35 36 36 36 35 36 37 38 39 39 40 40 40 40 41 42 43 44 44 44 43 42 41 40 39 38 38 39 39 40 41 41 40 38 37 38 40 40 41 45 47 46 44 42 45 48 50 50 49 49 48 45 45 44 42 41 43 44 43 42 41 40 40 41 42 43 44 44 43 42 42 42 40 39 39 38 36 35 33 32 30
35 35 35 36 36 37 37 37 37 37 38 39 40 40 40 41 41 41 41 42 43 44 44 45 44 43 43 42 41 41 41 42 42 42 44 44 44 42 40 39 41 41 41 43 45 45 43 43 45 47 49 51 52 53 52 50 46 44 44 43 43 44 44 41 40 38 36 37 40 43 44 45 45 44 43 43 43 41 41 40 39 37 36 34 33
36 36 36 37 37 37 38 38 39 39 40 40 41 41 42 42 42 42 42 42 43 43 44 45 45 45 45 44 43 43 43 44 44 44 44 46 46 45 44 42 42 43 43 43 44 43 42 43 46 48 50 51 52 54 55 54 50 46 45 46 44 43 44 41 39 37 35 36 38 41 44 46 46 45 44 44 44 44 42 42 41 40 38 37 36
36 36 36 37 37 38 39 39 40 40 41 42 43 43 43 43 43 43 43 43 43 44 44 44 45 46 46 46 45 45 45 45 45 46 45 46 47 47 46 45 44 44 44 44 44 42 42 43 44 47 50 51 51 54 56 56 54 50 45 45 46 45 44 44 41 39 38 37 37 39 42 45 46 46 45 45 45 46 45 44 43 42 41 39 38
37 37 37 37 38 39 40 40 41 42 43 43 44 44 44 44 44 44 44 44 45 45 45 45 46 47 48 48 47 47 46 45 45 47 47 47 48 47 47 46 45 45 46 46 44 42 42 44 44 44 48 52 52 53 56 57 57 55 49 46 47 47 46 46 44 42 40 38 37 39 41 44 46 47 46 46 45 46 47 45 44 44 43 41 39
37 37 38 39 39 40 40 41 42 43 44 45 45 45 45 44 44 44 45 46 47 47 47 47 47 48 49 51 50 49 48 46 45 47 47 47 48 48 48 48 47 47 46 47 46 43 42 44 45 45 46 49 52 53 54 56 58 59 54 48 48 48 47 46 45 43 41 40 39 39 40 42 44 46 47 46 46 46 47 47 46 45 44 42 41
38 38 39 39 40 41 41 42 43 44 45 46 46 46 45 45 45 44 45 47 48 49 49 48 46 47 50 51 50 48 47 47 46 46 47 47 48 48 48 48 48 48 47 48 48 45 43 44 45 47 47 48 51 53 52 53 57 60 57 50 48 49 48 47 46 44 43 41 40 39 38 40 42 44 46 46 46 46 46 48 47 46 45 44 43
39 39 40 40 41 42 43 43 44 45 46 47 47 46 46 46 45 45 46 48 49 50 50 49 47 46 47 47 46 46 48 48 47 46 46 47 47 47 48 48 48 49 49 49 50 47 44 45 46 47 49 49 50 52 52 51 54 59 58 53 50 50 49 48 47 46 45 43 41 38 37 37 40 42 44 46 46 46 46 47 48 48 47 46 44
38 39 40 41 42 43 44 45 45 45 46 47 47 47 47 46 46 46 47 49 50 51 51 51 48 43 41 43 45 47 49 48 46 46 45 46 47 46 47 47 47 48 50 50 51 49 45 46 48 47 48 51 51 51 51 50 53 58 59 56 53 51 50 49 48 47 46 45 42 40 37 36 37 40 43 45 46 46 46 47 48 49 48 47 46
38 39 40 41 43 44 45 46 46 46 46 46 46 47 47 47 47 47 48 50 51 52 52 52 49 44 42 44 47 46 45 45 44 44 44 44 46 46 46 47 46 46 49 50 51 50 47 46 49 48 47 50 53 51 50 50 53 57 60 58 55 53 52 51 51 49 47 46 45 43 40 37 36 38 42 44 44 45 45 46 48 49 49 49 48
41 41 42 42 44 45 45 46 46 46 46 46 46 46 47 47 47 48 49 51 52 52 52 52 50 47 44 44 44 42 41 42 42 42 42 42 44 46 46 46 46 45 47 49 49 50 49 47 49 50 48 49 53 54 49 48 51 56 60 59 55 53 52 52 52 51 47 45 46 45 42 39 37 37 40 42 43 44 44 45 46 49 50 50 49
43 43 43 43 44 44 45 45 46 46 47 47 46 47 47 48 48 49 50 51 52 52 51 51 49 46 44 42 40 39 39 40 40 40 40 42 43 45 45 45 45 45 46 48 48 48 49 48 48 52 51 49 52 55 51 47 48 54 59 62 59 54 52 52 51 51 48 45 46 46 43 40 38 37 38 40 42 42 42 43 45 47 50 50 49
44 44 44 45 45 45 45 45 46 47 48 48 48 48 48 48 49 50 51 51 51 51 49 48 47 45 42 40 38 37 37 37 38 39 40 41 43 44 45 45 44 44 45 47 47 47 48 49 48 50 53 51 50 53 52 48 48 51 56 61 62 57 54 53 51 49 47 45 43 42 40 38 37 36 37 39 40 41 41 41 43 45 48 49 49
46 46 46 46 47 46 46 47 47 48 49 49 49 49 49 48 49 49 49 49 49 48 47 46 45 42 40 38 36 35 36 36 37 39 40 41 42 43 43 43 43 42 43 46 47 47 48 50 48 48 51 52 50 50 50 48 48 49 52 58 62 59 54 53 51 49 46 42 39 37 36 36 36 35 36 38 39 40 40 40 41 43 46 48 49
48 48 47 47 47 47 47 48 48 49 49 49 49 50 49 49 49 48 47 47 47 46 45 44 42 40 38 36 35 34 35 35 36 38 40 41 41 42 41 41 41 40 41 44 47 47 48 49 49 48 49 51 51 50 49 48 47 47 49 55 59 59 56 53 51 49 47 42 37 35 35 35 34 33 34 36 38 38 38 39 39 41 43 46 47
49 48 48 48 48 48 48 48 48 49 49 49 50 51 51 50 49 47 47 46 45 45 43 41 39 37 35 34 33 34 35 35 36 37 39 41 42 42 41 39 38 37 39 42 46 47 47 48 48 47 48 49 50 50 49 48 47 45 46 51 56 58 58 55 52 51 50 44 39 37 36 36 35 34 33 35 37 37 37 37 37 38 40 43 45
49 49 49 49 49 49 49 48 49 50 49 49 50 51 51 50 49 48 47 45 43 42 41 39 36 35 34 32 32 34 35 36 36 37 39 41 42 42 41 40 38 36 37 40 44 45 45 47 47 46 47 48 47 47 47 47 46 45 45 48 52 56 58 57 55 54 54 49 43 39 39 38 38 36 35 34 35 36 36 36 35 36 38 41 44
50 50 50 49 49 49 49 49 50 50 49 49 50 51 50 50 48 48 46 43 40 40 39 37 34 33 32 32 32 33 35 36 37 38 39 40 41 41 40 40 39 38 37 38 41 42 42 44 45 45 47 48 46 45 45 45 45 45 45 45 48 53 57 56 55 55 53 50 45 41 40 40 39 38 37 35 34 35 35 35 35 36 38 40 42
50 49 49 50 50 50 49 49 50 50 49 49 49 50 49 48 47 47 44 41 39 38 37 35 32 31 31 32 32 33 35 36 37 38 38 39 40 42 41 40 40 41 40 38 38 40 40 42 44 43 45 49 47 45 44 43 44 44 45 44 44 49 52 52 52 53 51 48 45 41 40 40 40 38 38 36 35 35 35 35 36 37 38 39 41
49 48 48 50 51 51 49 49 49 49 49 49 49 49 48 46 45 44 42 38 37 36 35 32 31 30 30 31 33 33 33 34 35 36 37 39 41 42 41 40 39 41 41 38 37 39 39 41 42 42 43 48 49 45 44 43 43 44 45 44 42 43 46 49 50 50 50 48 45 41 39 40 39 38 37 37 36 36 35 34 35 36 38 39 41
47 47 49 50 51 50 49 49 49 48 48 49 49 48 46 44 43 42 38 35 34 34 33 31 30 30 30 30 31 32 31 32 34 36 38 40 42 42 41 39 39 40 40 38 38 40 40 40 40 40 42 47 48 45 44 43 43 43 44 44 42 39 39 44 48 50 51 51 48 43 40 39 39 38 38 38 36 35 35 34 34 36 38 39 40
47 47 48 48 49 49 49 48 48 48 49 50 47 45 44 42 41 39 35 32 31 32 30 29 30 30 29 29 30 31 32 33 36 38 39 41 43 43 40 37 38 40 39 36 37 40 41 40 39 38 41 45 46 44 42 42 42 43 43 44 42 38 36 39 44 49 52 51 49 44 39 38 39 39 39 39 38 36 35 36 36 37 37 38 40
46 45 46 47 48 48 48 48 48 48 49 48 45 43 42 40 38 37 33 30 30 30 29 28 29 29 28 29 30 31 32 33 35 37 38 40 42 42 38 36 38 40 38 34 36 40 41 39 37 36 37 42 44 42 40 39 40 42 43 43 44 43 41 40 42 45 48 48 47 43 39 37 39 39 39 41 42 39 37 38 39 37 37 38 40
43 43 45 46 47 47 47 47 47 48 47 45 43 42 41 39 37 35 32 29 29 29 28 27 28 29 28 28 29 30 31 32 34 35 37 39 41 41 37 34 36 38 35 32 34 37 38 36 34 33 34 38 41 41 39 38 38 40 42 42 44 45 44 42 42 43 45 45 45 43 40 38 38 39 40 42 43 41 39 40 40 38 38 39 39
42 44 45 46 46 47 46 47 48 47 45 43 41 40 40 38 36 34 31 28 28 28 27 27 28 29 28 28 28 29 29 31 33 35 37 38 40 39 35 33 35 35 31 29 32 34 34 32 31 31 32 35 37 38 38 37 37 39 41 41 42 44 43 41 41 42 44 45 44 43 43 40 37 38 40 42 43 41 39 40 40 39 39 39 39
43 43 44 45 45 45 45 47 47 46 43 42 41 39 39 38 35 32 29 27 27 27 27 28 28 28 28 28 28 28 29 30 32 34 36 38 39 37 33 31 33 34 28 26 28 30 30 30 29 30 32 33 33 34 35 35 35 36 37 38 40 41 41 41 41 43 45 44 43 43 43 41 38 38 40 42 41 39 38 39 39 39 38 38 38
Wind_Direction
313 311 308 304 302 304 306 307 303 295 290 290 292 295 302 305 299 291 291 294 297 294 286 278 271 269 274 275 279 283 284 285 269 255 254 251 247 244 242 241 240 242 241 239 236 232 230 227 228 230 231 233 235 235 235 236 240 245 254 258 260 259 255 253 16 341 336 339 347 0 11 30 45 50 48 34 22 15 16 21 21 28 56 103 124
313 312 312 310 309 310 311 313 312 305 299 298 299 300 303 305 302 295 291 293 295 293 289 283 274 265 265 269 275 279 282 291 284 265 256 247 240 239 241 243 244 243 243 245 245 241 237 232 230 229 229 232 233 233 233 236 241 245 252 257 258 254 251 244 225 255 286 299 308 319 309 1 30 36 48 43 31 31 36 39 39 49 70 98 114
325 326 325 318 313 311 314 317 317 313 309 307 306 304 302 299 298 297 294 295 297 294 288 286 282 273 267 267 269 271 277 283 283 275 269 257 244 240 242 243 244 243 241 245 249 249 246 240 235 233 230 231 232 233 232 232 238 244 250 257 260 257 252 245 233 235 251 258 253 232 223 230 270 334 16 46 49 51 62 62 57 67 83 98 107
339 341 339 332 326 320 321 324 326 324 319 314 310 307 304 298 292 291 292 295 298 296 290 286 285 282 276 269 264 266 270 269 268 270 273 270 258 249 248 247 246 245 241 241 246 249 250 247 241 237 234 231 231 233 233 232 233 239 246 253 259 259 256 250 239 232 238 244 244 234 227 231 245 281 312 315 40 69 84 85 80 85 94 103 108
339 339 338 335 332 329 326 326 327 326 323 317 314 313 313 306 294 289 291 295 297 297 294 288 285 284 281 274 269 271 267 260 261 266 269 272 268 257 252 250 250 249 246 242 242 244 247 249 246 242 238 235 233 232 233 233 232 233 239 246 253 257 258 254 247 238 234 236 239 236 232 236 240 255 284 290 274 111 105 104 100 99 103 107 109
337 335 334 332 329 327 324 323 323 321 319 317 315 315 318 317 306 296 295 298 298 296 294 290 285 282 281 277 276 277 272 265 266 267 267 268 268 266 260 253 249 249 249 245 242 241 242 245 247 246 242 238 236 234 233 234 235 234 234 238 245 251 255 255 253 246 239 237 237 234 230 233 238 239 247 258 254 215 160 136 114 107 108 108 108
337 335 333 332 330 328 326 325 324 322 321 319 317 316 319 320 315 308 305 304 304 300 295 291 286 281 278 277 277 277 276 276 274 271 268 267 267 266 263 259 254 250 250 249 247 245 241 241 244 246 245 242 239 237 236 235 237 237 236 236 238 243 248 252 254 252 247 242 240 238 233 233 237 238 236 234 233 223 198 174 150 125 113 110 110
339 337 336 335 333 331 331 331 330 330 330 327 325 323 322 321 318 315 313 311 310 305 301 296 291 284 275 272 275 276 277 278 276 272 270 268 267 263 258 258 258 256 254 252 252 251 245 241 241 244 246 245 242 240 238 237 238 240 240 239 239 239 241 245 250 252 251 247 244 243 239 237 236 239 237 227 222 220 213 195 180 165 141 126 119
340 339 338 336 333 333 332 333 333 332 332 331 330 327 326 325 323 322 319 316 313 309 306 302 299 293 280 270 270 273 275 277 275 272 270 267 265 262 256 253 255 256 256 255 253 251 249 245 241 240 243 245 245 242 240 239 239 240 241 242 242 241 241 242 245 248 250 250 248 245 242 239 236 238 238 230 220 218 219 212 197 187 176 161 146
341 339 337 336 333 332 331 331 331 330 330 330 329 329 328 328 327 325 323 320 318 314 310 307 305 304 294 279 272 270 272 275 274 272 271 268 265 261 255 251 251 252 254 257 256 252 249 248 244 241 240 243 245 244 241 239 239 241 242 243 243 244 244 243 243 246 248 250 250 248 245 241 237 235 235 233 226 219 221 222 216 205 193 184 175
340 338 336 334 333 331 330 329 328 328 328 328 328 328 328 328 327 325 323 321 319 315 313 312 311 309 305 295 283 276 274 275 275 273 271 269 266 263 257 251 249 250 250 252 257 257 253 249 247 246 242 241 244 245 243 240 239 240 241 244 245 245 246 246 245 246 247 249 250 251 249 245 241 235 232 232 230 226 222 224 226 222 212 200 192
338 338 336 335 335 333 331 330 328 327 327 326 326 325 325 324 323 322 320 319 317 315 313 314 313 308 305 301 295 288 282 279 279 276 270 265 264 263 259 254 251 250 249 246 249 255 256 252 249 247 245 242 243 245 245 242 240 239 240 242 245 246 247 247 247 247 247 248 249 251 252 250 247 241 236 233 232 232 229 227 229 231 227 217 208
339 339 338 338 337 335 333 331 330 328 326 325 324 322 322 321 320 319 318 317 316 313 312 311 309 306 303 301 297 293 288 284 282 280 272 264 263 264 264 261 256 252 250 247 246 248 251 252 249 246 245 243 243 244 245 245 242 241 240 241 243 245 246 247 247 248 247 247 247 248 250 252 251 248 243 238 235 235 234 233 233 235 234 229 224
341 340 340 340 339 336 334 332 330 328 326 325 323 321 320 319 318 317 316 316 314 311 310 308 305 302 298 296 293 290 289 286 282 279 275 269 266 265 265 263 261 257 252 250 249 247 247 248 247 246 245 243 242 242 244 245 244 242 241 241 241 242 243 244 245 247 247 247 246 246 247 248 251 251 248 245 242 239 238 237 237 239 238 234 232
341 340 340 339 338 336 333 331 329 328 326 324 322 320 319 318 317 316 316 316 314 311 309 307 304 300 294 290 288 286 285 283 280 278 277 274 271 268 264 262 261 258 255 254 252 248 247 247 246 245 245 243 241 241 242 243 244 243 241 241 241 241 242 242 243 244 246 247 247 246 245 245 246 248 248 247 245 244 242 241 240 240 241 239 236
339 338 338 337 335 334 332 331 330 328 326 324 322 320 318 318 317 316 317 316 315 313 311 309 306 300 295 291 289 286 282 277 275 275 275 273 272 270 266 262 259 256 253 252 252 251 250 249 248 245 244 244 243 242 242 243 243 242 242 241 241 242 242 241 242 242 244 246 247 247 245 244 243 243 244 245 245 245 244 243 243 242 242 242 239
336 336 336 335 333 333 332 331 331 329 327 326 324 322 321 320 319 319 320 320 319 317 314 312 309 303 299 296 293 289 283 277 273 270 269 269 268 267 267 263 257 254 252 250 250 251 251 250 250 245 243 244 245 243 242 243 243 241 240 240 241 241 240 241 241 240 241 242 244 246 246 245 243 241 241 242 242 242 243 243 242 242 242 243 242
333 333 333 333 332 331 331 331 331 330 328 327 325 324 324 324 324 323 323 323 322 321 319 316 313 308 303 300 297 293 288 282 275 267 264 266 265 264 265 264 257 252 251 250 249 249 248 248 247 246 244 242 243 243 242 242 242 241 239 238 239 239 239 240 240 238 238 239 240 242 244 245 244 243 241 240 240 239 240 240 240 240 240 241 242
329 329 329 329 329 329 329 329 330 329 328 328 327 326 326 325 325 324 324 323 323 323 322 320 317 312 306 302 299 297 294 289 281 271 263 262 264 263 261 262 260 254 250 250 251 249 247 246 245 245 245 243 241 242 241 241 241 241 240 238 238 238 238 239 238 237 237 238 238 238 240 242 243 243 242 240 239 237 237 237 237 237 237 238 239
325 325 326 326 327 327 327 327 328 328 328 328 327 327 326 326 325 324 324 324 323 323 323 321 319 314 308 303 299 297 295 293 289 281 268 259 259 261 260 259 259 257 253 250 251 250 248 247 244 243 243 244 243 241 240 241 241 240 240 239 239 239 238 237 236 237 237 237 237 237 237 238 240 241 242 241 239 238 237 236 235 235 234 234 236
321 322 323 324 325 325 326 325 325 326 327 327 327 327 327 326 326 325 324 324 323 322 321 320 318 315 309 303 299 297 294 293 291 287 278 266 258 258 259 260 258 257 255 251 250 250 249 248 246 244 243 244 245 244 241 240 239 239 240 240 240 239 238 238 237 236 236 236 237 237 236 237 237 239 240 241 241 239 238 237 236 234 233 232 232
318 319 320 321 322 323 323 323 323 324 324 325 326 326 326 326 325 325 323 323 322 320 319 318 317 315 311 305 300 298 296 293 290 287 283 276 266 260 258 258 258 257 256 254 252 250 249 249 248 247 247 246 244 243 241 240 240 238 240 241 240 240 239 238 238 237 236 236 236 236 236 236 236 237 238 239 241 241 239 238 237 236 235 233 231
316 316 317 318 319 321 322 322 321 321 322 322 323 324 324 324 324 324 323 321 320 318 317 316 315 314 312 307 301 297 296 295 292 289 286 282 274 267 261 258 258 258 257 257 254 251 249 249 249 247 247 247 245 242 242 243 243 239 239 241 240 240 240 239 238 238 237 236 235 235 235 235 235 235 235 236 239 241 241 240 238 237 237 236 234
314 314 315 315 316 318 320 320 320 319 319 320 321 322 322 322 323 323 322 320 318 316 315 314 312 312 311 308 303 297 295 294 293 292 289 286 280 274 268 262 258 258 259 258 256 254 251 249 249 248 246 246 244 243 243 242 241 239 238 240 240 238 239 240 239 238 237 236 235 235 234 234 234 234 233 234 235 238 241 241 240 238 238 238 237
314 314 314 314 314 315 316 317 317 317 317 318 319 319 320 320 320 320 320 319 317 315 313 312 311 310 310 308 305 299 294 292 291 292 291 289 286 281 274 268 262 258 257 259 258 257 254 250 249 247 245 244 242 242 242 239 238 239 239 238 238 236 236 237 238 238 237 236 235 234 235 234 234 234 233 233 233 235 238 240 241 240 239 239 239
313 314 314 313 313 313 314 315 315 315 315 315 316 317 317 318 317 317 318 318 316 314 311 310 309 308 307 306 304 301 296 292 290 290 290 289 288 284 278 273 268 262 257 257 257 256 256 254 250 248 245 243 241 240 240 240 240 241 241 238 236 236 235 234 234 236 237 238 237 234 234 234 234 234 233 232 232 232 235 238 240 241 240 239 239
314 314 314 313 312 311 311 311 311 311 312 313 314 314 315 315 315 315 315 316 315 313 311 309 307 306 305 303 302 300 297 295 292 290 289 287 286 285 282 276 270 266 260 257 256 255 255 254 251 250 248 245 242 240 240 240 241 241 241 240 238 236 235 234 234 236 237 240 242 238 235 234 233 233 234 233 232 231 232 235 238 240 240 240 240
314 314 314 313 311 309 309 308 309 309 310 311 312 313 313 313 313 313 313 313 313 312 310 308 306 304 303 301 300 299 297 295 293 291 288 286 285 284 282 278 272 268 263 259 258 255 254 253 250 249 251 249 245 242 240 239 239 240 240 238 237 236 236 235 236 237 237 239 244 244 239 236 234 233 233 233 233 232 231 232 235 238 240 240 240
314 314 313 312 310 309 308 307 307 307 307 309 310 311 312 312 311 310 310 311 310 309 307 306 304 302 301 299 298 297 295 294 292 291 288 286 284 283 280 278 274 269 265 260 258 256 254 253 252 250 250 251 249 243 240 238 237 238 239 237 234 235 235 235 235 237 237 238 242 245 243 239 236 233 232 232 232 232 231 231 233 235 238 239 240
314 315 313 312 311 310 309 308 307 307 307 308 310 311 311 311 310 309 309 309 308 308 306 304 302 300 298 297 296 295 294 293 290 289 288 285 283 282 279 276 273 270 267 262 256 255 255 253 252 252 250 250 251 246 241 238 236 235 238 236 234 234 235 235 235 236 237 239 241 244 244 240 237 235 233 231 231 231 231 231 232 234 236 238 240
314 314 313 313 312 311 309 308 307 307 308 309 310 311 311 310 309 309 308 308 308 307 306 304 302 299 297 296 295 294 293 292 289 286 286 284 282 280 277 275 272 269 267 264 257 253 254 252 249 250 250 249 249 248 243 239 236 234 235 236 235 234 234 235 236 236 237 240 241 243 244 242 239 236 234 232 231 231 231 231 232 233 235 237 239
313 313 313 313 312 311 310 309 309 309 309 310 310 311 311 311 310 309 308 308 308 307 306 305 303 301 298 295 294 294 292 291 289 285 284 282 280 279 276 274 272 269 266 265 261 254 251 252 249 246 250 251 247 247 246 241 237 234 234 235 235 234 234 234 235 236 238 240 241 242 244 244 242 239 235 233 232 231 232 231 231 233 234 236 238
314 313 314 313 313 312 312 311 310 310 310 310 311 312 312 311 311 310 309 309 308 307 306 305 303 301 297 294 294 294 292 290 288 285 283 281 280 278 275 272 271 270 268 264 262 257 251 252 251 246 247 251 248 246 246 243 238 234 233 233 235 235 235 234 235 237 238 239 240 241 242 244 245 242 238 234 232 232 232 231 231 232 233 235 236
314 314 314 314 314 313 313 312 311 311 311 311 312 312 312 311 311 311 311 310 308 307 306 305 305 301 294 291 293 293 290 289 288 285 284 282 280 278 275 271 269 269 269 266 262 260 254 250 251 248 245 248 248 246 246 244 239 235 232 232 233 234 234 235 235 236 237 238 240 240 241 243 245 244 240 235 232 232 232 232 231 231 232 233 235
313 314 315 315 315 314 314 312 311 311 311 312 313 313 312 312 312 312 312 310 308 306 306 305 305 301 295 293 294 292 289 288 288 287 286 284 282 279 276 273 270 268 268 266 263 261 256 250 250 250 247 246 246 246 246 243 239 235 232 232 233 233 233 234 234 236 239 239 240 240 241 243 245 244 241 236 233 232 233 234 232 231 231 233 234
313 316 316 316 315 314 313 311 311 312 312 313 314 313 312 312 313 313 311 310 307 305 305 305 304 302 300 297 295 292 291 290 290 289 288 286 283 281 278 275 272 269 266 265 264 261 258 252 249 249 248 246 245 244 245 243 238 235 233 231 231 232 233 234 233 235 237 239 240 241 240 242 245 245 241 236 234 233 234 234 233 232 231 233 234
316 316 316 315 314 312 312 312 312 313 314 315 314 313 313 313 313 313 311 309 307 305 305 304 303 302 301 299 296 293 292 292 292 292 290 289 286 283 281 277 273 270 266 264 262 261 259 254 249 247 247 246 245 243 244 244 240 236 233 231 231 232 232 233 232 233 235 238 241 241 239 240 244 244 241 237 234 234 234 235 234 232 232 233 234
316 315 315 315 313 313 313 314 314 314 315 315 315 313 313 314 314 313 311 309 307 305 305 304 303 302 300 298 297 295 294 293 294 294 293 292 291 287 283 279 275 270 267 264 261 260 259 255 249 245 244 244 244 243 243 245 242 236 232 231 231 232 231 231 232 232 233 236 239 238 237 238 241 242 240 236 234 234 235 235 235 233 233 234 235
316 315 315 314 314 314 315 315 315 315 315 315 315 313 313 315 315 313 310 307 306 306 305 304 304 302 299 298 298 296 295 296 297 298 298 297 295 291 286 281 276 271 266 264 262 260 258 255 249 244 241 240 242 243 242 243 242 236 231 230 230 230 230 230 230 230 230 232 233 232 233 236 239 242 240 237 235 236 236 236 236 234 234 235 236
315 315 315 315 315 315 315 316 316 316 316 315 314 313 314 316 315 312 309 306 305 306 305 304 304 303 300 299 298 297 297 299 301 302 302 302 299 296 290 283 278 273 268 264 262 260 257 253 249 243 239 238 239 241 242 241 240 236 231 230 229 228 228 227 225 226 227 227 227 230 234 237 240 243 244 240 237 237 237 236 236 236 236 236 238
314 315 315 315 315 315 315 316 317 317 316 315 314 315 316 316 315 312 307 304 304 305 303 303 304 303 301 299 298 298 298 300 303 305 306 307 305 301 295 288 281 276 272 268 264 260 256 251 247 242 238 236 237 239 240 239 238 235 231 229 228 226 226 225 223 224 225 225 228 233 238 240 241 244 245 242 238 237 237 236 236 237 238 238 239
314 314 315 315 316 315 316 317 317 317 316 315 315 317 317 316 315 311 306 303 303 304 302 301 304 303 301 300 299 299 300 302 303 306 309 310 309 306 300 294 286 279 276 273 265 259 254 248 244 241 237 234 235 237 238 237 236 233 230 229 228 225 225 225 224 224 225 227 232 238 239 241 243 244 244 242 239 238 238 237 237 238 239 239 239
314 314 314 315 316 316 317 318 317 316 316 316 317 318 318 317 314 310 307 304 303 304 302 300 303 303 300 299 300 300 302 304 305 306 309 310 311 310 305 298 292 285 282 276 263 256 254 247 242 240 235 231 232 236 236 235 234 232 229 229 227 224 224 226 224 223 225 228 233 236 237 239 242 243 242 241 238 237 238 238 238 239 240 240 239
314 313 315 316 317 317 317 317 317 316 316 317 318 319 318 316 312 310 308 305 302 303 302 300 301 302 300 299 301 302 304 306 307 307 310 312 314 313 308 301 295 291 289 279 260 251 252 248 242 240 235 229 231 235 235 234 234 231 228 228 226 222 222 223 222 222 224 227 230 233 234 237 241 241 240 240 238 237 237 238 239 240 241 241 240
314 314 316 318 317 317 317 317 316 316 316 318 320 320 318 315 312 311 309 306 302 302 301 300 300 300 300 300 301 304 307 308 310 312 314 315 315 314 309 302 295 293 291 282 260 248 249 249 243 239 233 228 228 232 234 235 234 230 225 225 226 222 220 221 222 223 224 226 228 231 232 236 240 240 238 238 239 238 237 238 240 242 243 243 243
315 315 317 317 316 316 316 316 316 316 317 320 322 321 318 315 313 312 310 306 303 303 302 301 301 300 300 302 305 308 310 311 314 316 317 317 317 315 310 302 296 293 290 280 262 247 245 247 243 237 231 227 226 229 234 236 235 230 224 222 223 223 221 222 223 222 224 227 228 230 232 235 240 240 237 236 238 239 237 238 241 243 243 244 244
315 314 315 315 314 314 315 316 317 317 319 322 322 319 316 315 314 313 310 305 304 305 303 302 301 300 302 305 309 311 313 314 316 317 318 319 318 315 310 302 297 296 291 277 260 248 244 245 242 235 229 226 224 227 234 238 236 231 225 220 220 224 227 228 226 224 224 227 230 232 233 235 238 238 234 233 236 237 237 239 242 243 244 244 244
313 313 314 313 312 314 315 317 318 319 320 321 320 318 315 315 316 313 308 305 304 305 305 303 302 302 305 307 307 310 315 317 317 317 318 320 319 317 312 304 300 300 295 277 258 248 244 244 241 234 227 225 224 226 233 238 236 231 227 222 221 224 229 231 230 226 225 227 231 234 233 234 236 235 232 232 234 235 237 240 242 244 244 244 244
311 313 313 311 312 313 315 317 317 319 320 320 319 317 315 315 316 313 307 304 304 305 304 303 302 304 308 309 309 313 317 317 317 319 320 322 322 320 315 308 304 305 297 276 256 247 245 244 240 232 224 222 224 226 230 235 233 230 229 226 224 225 227 230 231 227 225 227 230 232 231 232 235 234 231 232 234 235 238 241 241 242 243 244 245
310 313 313 311 312 314 315 316 317 319 320 319 318 316 315 315 314 310 306 304 303 303 303 303 303 304 308 310 312 316 317 316 318 321 322 324 326 324 319 314 311 309 298 273 254 247 245 242 235 226 220 219 221 225 228 230 228 227 228 228 227 227 227 230 230 228 226 227 229 230 230 231 234 234 231 232 234 235 237 239 239 241 243 244 244
311 313 311 310 312 314 315 316 317 319 319 319 317 315 315 315 313 307 303 302 301 301 302 304 304 304 306 309 313 317 317 317 320 322 323 327 330 327 323 320 317 313 299 272 254 246 242 237 229 221 217 217 219 222 224 224 224 226 228 228 228 228 229 231 232 230 228 228 229 231 230 230 233 234 232 232 234 234 235 236 237 239 241 241 242
Height
5922 5921 5920 5919 5918 5917 5916 5916 5916 5915 5915 5914 5914 5914 5913 5911 5910 5909 5908 5908 5908 5909 5909 5910 5912 5912 5909 5908 5909 5909 5910 5910 5908 5907 5909 5909 5909 5910 5912 5914 5916 5917 5918 5919 5919 5918 5918 5918 5919 5920 5921 5923 5924 5925 5926 5927 5927 5928 5929 5929 5929 5929 5929 5929 5929 5929 5930 5930 5931 5931 5932 5932 5932 5931 5931 5931 5931 5931 5931 5930 5930 5930 5930 5929 5929
5921 5920 5919 5917 5916 5915 5915 5914 5914 5913 5913 5912 5912 5912 5911 5910 5909 5908 5907 5907 5906 5906 5906 5907 5909 5910 5908 5907 5908 5908 5908 5907 5906 5906 5909 5910 5909 5910 5911 5912 5914 5915 5917 5918 5918 5918 5918 5918 5918 5919 5920 5921 5922 5923 5924 5925 5926 5927 5928 5929 5929 5929 5929 5929 5929 5929 5930 5930 5930 5931 5931 5932 5932 5932 5931 5931 5931 5931 5931 5930 5930 5930 5930 5930 5930
5920 5919 5917 5916 5915 5914 5913 5912 5911 5910 5910 5910 5910 5909 5909 5909 5908 5907 5906 5906 5905 5904 5904 5904 5905 5907 5907 5907 5908 5907 5906 5905 5905 5906 5907 5908 5908 5908 5909 5910 5911 5913 5915 5916 5917 5918 5918 5918 5918 5918 5918 5919 5920 5922 5923 5924 5925 5926 5927 5928 5928 5928 5928 5929 5929 5929 5930 5930 5930 5931 5931 5932 5932 5932 5931 5931 5931 5931 5930 5930 5930 5930 5930 5930 5930
5918 5917 5916 5915 5914 5913 5911 5910 5908 5908 5908 5908 5908 5907 5907 5906 5905 5905 5904 5904 5903 5902 5901 5901 5901 5902 5904 5905 5905 5906 5905 5904 5904 5905 5905 5905 5906 5906 5906 5908 5910 5910 5912 5914 5915 5916 5917 5918 5917 5917 5917 5918 5919 5920 5921 5922 5923 5924 5926 5927 5927 5928 5928 5928 5929 5929 5929 5930 5930 5930 5931 5931 5931 5932 5932 5931 5931 5931 5931 5930 5930 5930 5930 5930 5930
5917 5915 5914 5913 5912 5911 5910 5908 5907 5907 5907 5906 5906 5905 5905 5904 5903 5902 5902 5902 5901 5900 5899 5899 5899 5899 5900 5901 5902 5903 5903 5903 5902 5902 5903 5903 5904 5904 5904 5905 5907 5908 5909 5911 5912 5913 5915 5916 5917 5917 5917 5917 5917 5918 5919 5920 5921 5922 5923 5925 5926 5927 5927 5928 5928 5929 5929 5929 5930 5930 5930 5931 5931 5931 5931 5931 5931 5931 5931 5931 5931 5931 5930 5930 5931
5917 5915 5914 5913 5912 5911 5909 5908 5907 5906 5906 5905 5904 5903 5902 5901 5901 5901 5900 5900 5899 5899 5898 5898 5897 5898 5898 5898 5899 5900 5900 5901 5900 5900 5900 5901 5902 5903 5902 5902 5904 5906 5907 5908 5909 5910 5911 5913 5915 5915 5916 5916 5916 5916 5917 5918 5919 5920 5921 5923 5924 5925 5926 5927 5928 5928 5929 5929 5930 5930 5930 5930 5931 5931 5931 5931 5931 5931 5931 5931 5931 5931 5931 5931 5931
5916 5915 5914 5913 5912 5910 5909 5908 5907 5906 5905 5904 5903 5902 5901 5900 5899 5899 5898 5898 5897 5897 5896 5896 5896 5896 5896 5896 5896 5897 5897 5897 5898 5898 5898 5899 5899 5900 5900 5900 5901 5903 5904 5906 5907 5908 5909 5910 5912 5913 5914 5915 5915 5915 5915 5916 5917 5918 5919 5920 5922 5923 5924 5926 5927 5927 5928 5928 5929 5929 5930 5930 5930 5931 5931 5931 5931 5931 5931 5931 5931 5931 5931 5931 5931
5914 5913 5912 5911 5911 5910 5908 5907 5906 5905 5903 5902 5901 5900 5899 5898 5898 5897 5896 5896 5896 5895 5894 5894 5893 5893 5893 5893 5894 5894 5894 5894 5895 5896 5896 5897 5897 5898 5898 5898 5898 5899 5900 5902 5905 5906 5907 5907 5909 5910 5912 5913 5913 5913 5914 5914 5915 5916 5918 5919 5920 5921 5922 5924 5925 5926 5927 5927 5928 5929 5929 5929 5930 5930 5930 5931 5931 5931 5931 5931 5931 5931 5931 5931 5931
5913 5912 5911 5910 5909 5908 5907 5906 5905 5903 5902 5901 5899 5898 5897 5896 5896 5895 5895 5894 5893 5893 5892 5891 5891 5891 5890 5891 5891 5891 5891 5891 5892 5892 5893 5894 5895 5895 5896 5895 5895 5896 5897 5898 5901 5903 5904 5905 5905 5907 5909 5910 5911 5911 5912 5912 5913 5914 5915 5917 5918 5920 5921 5922 5923 5924 5926 5926 5927 5927 5928 5929 5929 5929 5930 5930 5930 5931 5931 5931 5931 5931 5931 5931 5931
5912 5911 5911 5910 5909 5907 5906 5905 5904 5903 5901 5900 5899 5897 5896 5895 5894 5893 5892 5892 5891 5890 5890 5890 5889 5888 5888 5888 5888 5888 5888 5888 5888 5889 5889 5890 5891 5892 5893 5893 5893 5893 5894 5895 5897 5899 5900 5901 5902 5904 5905 5907 5909 5909 5909 5910 5910 5911 5913 5915 5916 5918 5919 5920 5921 5923 5924 5925 5926 5926 5927 5927 5928 5928 5929 5929 5930 5930 5930 5931 5931 5931 5931 5931 5931
5911 5911 5910 5909 5908 5907 5905 5904 5902 5901 5900 5898 5897 5896 5894 5893 5893 5892 5890 5889 5889 5888 5887 5887 5887 5886 5886 5885 5885 5885 5885 5885 5885 5885 5886 5886 5887 5887 5889 5890 5890 5890 5891 5892 5893 5894 5896 5897 5899 5901 5902 5903 5905 5907 5907 5907 5907 5909 5910 5912 5914 5916 5917 5919 5920 5921 5922 5923 5924 5925 5926 5926 5927 5927 5928 5928 5929 5929 5930 5930 5930 5931 5931 5931 5931
5911 5910 5909 5908 5907 5905 5904 5902 5900 5899 5898 5897 5895 5894 5893 5892 5891 5890 5889 5888 5886 5885 5884 5884 5884 5883 5883 5882 5882 5881 5882 5881 5881 5882 5882 5882 5882 5883 5883 5885 5886 5887 5887 5888 5889 5890 5892 5893 5895 5897 5898 5899 5902 5904 5904 5904 5904 5905 5907 5909 5911 5913 5915 5917 5918 5919 5920 5921 5923 5924 5924 5925 5926 5926 5927 5927 5928 5928 5929 5929 5930 5930 5930 5930 5930
5911 5910 5909 5907 5905 5903 5902 5900 5898 5897 5895 5894 5893 5893 5892 5891 5890 5888 5887 5886 5884 5882 5881 5881 5881 5880 5879 5879 5878 5878 5878 5878 5878 5877 5877 5878 5878 5879 5879 5880 5882 5883 5884 5884 5886 5887 5888 5890 5891 5892 5894 5896 5898 5900 5901 5902 5902 5903 5904 5906 5908 5910 5913 5914 5916 5917 5918 5919 5921 5922 5923 5924 5924 5925 5925 5926 5926 5927 5928 5928 5929 5929 5930 5930 5930
5909 5908 5907 5905 5904 5902 5900 5899 5897 5896 5894 5892 5891 5890 5889 5889 5888 5886 5884 5883 5882 5880 5878 5878 5877 5877 5876 5876 5875 5874 5874 5874 5874 5873 5873 5873 5874 5875 5875 5875 5877 5878 5880 5880 5882 5883 5884 5886 5887 5888 5890 5891 5893 5895 5897 5899 5900 5900 5901 5902 5905 5907 5909 5911 5913 5914 5916 5917 5918 5919 5920 5922 5923 5924 5924 5925 5925 5925 5926 5927 5928 5928 5929 5929 5929
5906 5905 5904 5902 5901 5900 5899 5898 5896 5895 5893 5891 5890 5888 5887 5886 5885 5883 5882 5880 5878 5876 5875 5874 5873 5872 5872 5872 5872 5871 5870 5869 5869 5869 5869 5869 5870 5870 5870 5871 5872 5874 5875 5876 5877 5878 5879 5881 5884 5885 5886 5887 5888 5890 5892 5894 5896 5896 5897 5899 5901 5903 5906 5908 5910 5911 5913 5915 5916 5917 5918 5919 5920 5921 5922 5923 5924 5924 5925 5925 5926 5927 5928 5928 5928
5903 5902 5901 5900 5899 5898 5897 5895 5894 5893 5891 5890 5888 5887 5885 5884 5882 5880 5879 5877 5875 5873 5871 5870 5869 5867 5867 5867 5867 5867 5867 5865 5865 5866 5865 5864 5865 5865 5866 5867 5867 5868 5870 5870 5872 5874 5875 5876 5879 5882 5883 5883 5885 5886 5887 5889 5891 5892 5893 5895 5897 5900 5902 5904 5906 5908 5910 5912 5913 5915 5916 5917 5918 5919 5920 5921 5922 5922 5923 5924 5924 5925 5926 5927 5927
5900 5899 5898 5897 5895 5895 5894 5893 5891 5890 5888 5887 5885 5884 5882 5881 5879 5876 5875 5873 5871 5869 5867 5865 5865 5863 5862 5862 5862 5862 5862 5861 5861 5862 5860 5859 5860 5861 5861 5861 5862 5864 5865 5865 5867 5869 5870 5871 5873 5877 5879 5880 5881 5882 5883 5884 5885 5887 5889 5891 5893 5896 5898 5900 5902 5904 5906 5908 5910 5911 5913 5914 5915 5917 5918 5919 5920 5920 5921 5922 5923 5923 5924 5925 5925
5897 5896 5894 5893 5892 5891 5889 5889 5888 5887 5885 5884 5882 5880 5878 5876 5875 5872 5870 5869 5867 5866 5863 5861 5860 5859 5857 5856 5856 5856 5857 5856 5857 5857 5856 5856 5856 5857 5857 5856 5857 5860 5860 5860 5862 5864 5865 5866 5868 5871 5874 5876 5877 5877 5879 5880 5881 5882 5884 5887 5889 5891 5893 5895 5898 5900 5902 5904 5906 5908 5910 5911 5913 5914 5915 5916 5917 5918 5919 5919 5920 5921 5922 5923 5924
5896 5894 5893 5891 5890 5888 5886 5885 5884 5883 5881 5880 5878 5876 5874 5872 5871 5869 5867 5865 5863 5862 5860 5858 5856 5855 5853 5852 5851 5851 5851 5851 5851 5852 5853 5853 5852 5852 5853 5853 5852 5854 5855 5856 5858 5860 5861 5862 5863 5866 5869 5871 5872 5872 5873 5875 5876 5878 5880 5882 5884 5886 5888 5890 5893 5895 5897 5900 5902 5904 5906 5908 5909 5911 5912 5914 5915 5915 5916 5917 5918 5919 5920 5921 5921
5895 5893 5892 5890 5888 5886 5884 5882 5881 5879 5878 5876 5875 5873 5871 5869 5867 5865 5863 5862 5860 5859 5857 5855 5854 5852 5850 5848 5848 5847 5846 5845 5845 5846 5848 5849 5848 5847 5848 5849 5848 5849 5851 5851 5852 5854 5856 5857 5859 5861 5863 5865 5867 5868 5869 5871 5872 5874 5876 5878 5879 5881 5883 5886 5888 5890 5892 5895 5897 5899 5901 5904 5906 5907 5909 5911 5912 5913 5914 5914 5915 5916 5917 5918 5919
5893 5891 5890 5888 5886 5884 5882 5880 5878 5877 5875 5873 5871 5870 5868 5866 5864 5861 5859 5858 5856 5855 5854 5852 5851 5850 5848 5846 5844 5843 5842 5841 5841 5840 5841 5843 5844 5844 5843 5843 5843 5844 5845 5846 5847 5848 5850 5852 5854 5856 5858 5860 5862 5864 5866 5867 5868 5870 5872 5874 5875 5876 5878 5880 5883 5885 5887 5890 5892 5895 5897 5899 5902 5904 5906 5907 5909 5910 5911 5912 5913 5914 5915 5915 5916
5891 5890 5888 5886 5884 5882 5880 5878 5876 5874 5872 5870 5868 5866 5864 5862 5860 5858 5856 5854 5852 5851 5850 5848 5847 5846 5845 5843 5842 5841 5839 5838 5837 5836 5836 5837 5838 5839 5839 5838 5838 5839 5839 5840 5842 5843 5845 5847 5849 5851 5853 5855 5857 5858 5860 5862 5863 5865 5868 5869 5870 5871 5872 5875 5877 5880 5882 5884 5887 5889 5892 5895 5897 5899 5902 5904 5906 5907 5909 5910 5911 5912 5912 5913 5914
5889 5887 5886 5884 5882 5880 5878 5876 5874 5872 5870 5868 5866 5864 5861 5859 5857 5855 5853 5851 5849 5847 5846 5844 5843 5841 5840 5839 5839 5838 5836 5835 5834 5832 5832 5832 5833 5834 5834 5833 5833 5834 5834 5834 5835 5838 5840 5840 5842 5845 5846 5849 5851 5853 5855 5857 5858 5859 5863 5865 5866 5867 5868 5869 5872 5874 5877 5879 5881 5884 5887 5889 5892 5895 5897 5899 5902 5904 5905 5907 5908 5909 5910 5911 5911
5887 5885 5883 5881 5879 5877 5875 5873 5871 5869 5866 5864 5862 5860 5858 5856 5854 5852 5850 5848 5846 5844 5842 5840 5838 5837 5836 5835 5835 5834 5833 5832 5830 5829 5828 5827 5828 5830 5830 5828 5828 5830 5829 5828 5829 5832 5834 5835 5837 5839 5840 5842 5845 5847 5849 5851 5852 5853 5856 5859 5862 5862 5863 5864 5865 5868 5871 5874 5876 5879 5881 5884 5887 5890 5892 5895 5897 5900 5902 5903 5905 5906 5907 5908 5909
5883 5882 5880 5879 5876 5874 5873 5871 5868 5866 5863 5861 5859 5856 5854 5852 5850 5848 5846 5844 5842 5840 5838 5836 5834 5833 5832 5831 5830 5830 5829 5827 5826 5825 5823 5822 5822 5824 5824 5822 5822 5825 5825 5822 5823 5826 5828 5830 5832 5833 5834 5836 5839 5841 5843 5844 5848 5849 5849 5852 5856 5858 5859 5859 5860 5862 5865 5868 5871 5873 5876 5878 5881 5884 5887 5890 5893 5895 5898 5900 5901 5903 5904 5905 5906
5880 5878 5877 5875 5873 5871 5869 5867 5865 5863 5861 5858 5856 5853 5851 5849 5846 5844 5842 5840 5838 5836 5834 5832 5830 5829 5828 5826 5826 5825 5824 5823 5821 5820 5819 5817 5816 5816 5818 5817 5816 5818 5820 5817 5817 5820 5823 5825 5826 5827 5828 5830 5832 5835 5837 5838 5842 5845 5844 5846 5850 5852 5853 5855 5856 5857 5859 5862 5865 5868 5870 5873 5875 5878 5881 5884 5888 5890 5893 5895 5897 5899 5901 5902 5903
5876 5875 5873 5871 5869 5867 5865 5863 5862 5860 5857 5855 5853 5850 5848 5845 5843 5841 5838 5837 5834 5832 5830 5828 5826 5825 5823 5822 5821 5820 5819 5817 5816 5815 5813 5812 5811 5810 5811 5811 5810 5811 5813 5812 5811 5814 5817 5819 5820 5821 5822 5825 5827 5828 5830 5833 5836 5838 5839 5841 5844 5846 5849 5851 5853 5854 5856 5858 5860 5862 5864 5867 5870 5873 5876 5879 5882 5885 5888 5890 5893 5895 5897 5898 5899
5873 5871 5869 5867 5865 5863 5862 5860 5858 5856 5853 5851 5849 5847 5844 5842 5839 5836 5834 5832 5830 5828 5826 5824 5822 5820 5819 5817 5816 5815 5813 5812 5811 5810 5808 5806 5805 5804 5803 5804 5804 5804 5805 5806 5806 5808 5811 5812 5813 5815 5816 5818 5821 5822 5824 5827 5830 5832 5833 5836 5839 5842 5845 5848 5850 5851 5852 5853 5855 5857 5859 5861 5864 5867 5870 5873 5876 5879 5882 5885 5888 5890 5892 5894 5895
5870 5868 5866 5864 5862 5860 5858 5856 5853 5851 5849 5847 5845 5842 5840 5838 5835 5832 5830 5828 5826 5823 5822 5820 5817 5815 5814 5812 5811 5810 5808 5806 5805 5803 5802 5800 5799 5798 5797 5797 5796 5796 5797 5799 5801 5803 5804 5805 5806 5808 5809 5810 5813 5816 5817 5820 5824 5826 5827 5830 5833 5836 5839 5842 5844 5845 5847 5848 5850 5852 5854 5856 5858 5861 5864 5867 5870 5873 5876 5879 5882 5885 5887 5889 5891
5866 5864 5862 5861 5858 5856 5854 5851 5849 5847 5844 5842 5840 5838 5835 5833 5830 5827 5825 5823 5821 5818 5816 5815 5813 5811 5809 5807 5805 5804 5802 5801 5799 5797 5795 5794 5793 5792 5791 5790 5790 5789 5789 5790 5794 5798 5798 5797 5799 5801 5802 5803 5805 5808 5811 5813 5817 5819 5821 5824 5828 5831 5834 5836 5838 5840 5842 5843 5845 5846 5849 5851 5853 5855 5858 5861 5864 5867 5870 5874 5877 5880 5883 5885 5887
5863 5861 5858 5856 5854 5852 5849 5847 5844 5842 5839 5837 5835 5833 5830 5828 5825 5822 5819 5817 5815 5812 5810 5808 5807 5805 5803 5801 5799 5797 5796 5794 5792 5790 5789 5787 5786 5785 5784 5783 5783 5782 5782 5781 5785 5791 5791 5790 5791 5792 5793 5795 5797 5799 5803 5807 5810 5812 5815 5819 5822 5825 5829 5831 5833 5836 5837 5839 5841 5842 5844 5846 5848 5850 5853 5855 5858 5861 5865 5868 5872 5875 5878 5881 5883
5858 5856 5854 5852 5849 5847 5845 5842 5839 5837 5834 5832 5829 5828 5825 5822 5819 5816 5813 5811 5808 5806 5804 5802 5800 5799 5796 5794 5792 5790 5789 5787 5785 5783 5782 5780 5779 5779 5777 5777 5776 5776 5776 5774 5775 5781 5785 5784 5784 5785 5786 5787 5790 5792 5795 5800 5803 5805 5809 5814 5816 5819 5823 5826 5828 5831 5833 5835 5837 5838 5840 5842 5844 5846 5848 5850 5853 5856 5859 5862 5866 5869 5873 5876 5878
5854 5852 5850 5847 5845 5842 5840 5837 5835 5832 5829 5826 5824 5822 5819 5816 5813 5810 5807 5804 5801 5799 5797 5795 5794 5792 5790 5787 5786 5784 5781 5780 5778 5776 5775 5773 5772 5772 5771 5770 5770 5769 5768 5767 5766 5772 5778 5777 5777 5779 5780 5780 5783 5785 5788 5793 5796 5798 5802 5807 5810 5812 5817 5821 5823 5826 5828 5830 5832 5834 5836 5838 5840 5841 5843 5845 5848 5850 5853 5856 5860 5864 5867 5870 5873
5851 5848 5846 5843 5841 5838 5835 5832 5830 5827 5824 5821 5818 5815 5813 5811 5808 5805 5801 5798 5795 5792 5790 5788 5787 5785 5784 5782 5780 5777 5775 5773 5771 5769 5768 5767 5765 5765 5764 5763 5764 5763 5761 5760 5759 5762 5769 5771 5770 5772 5775 5774 5776 5779 5781 5786 5790 5791 5795 5800 5803 5806 5810 5814 5818 5820 5823 5825 5827 5829 5831 5833 5835 5837 5838 5840 5842 5845 5848 5851 5854 5858 5862 5865 5868
5847 5845 5842 5839 5836 5833 5830 5828 5825 5822 5820 5816 5813 5810 5807 5805 5803 5800 5796 5793 5790 5787 5784 5782 5780 5779 5778 5776 5774 5771 5768 5766 5764 5763 5762 5760 5758 5757 5757 5756 5756 5757 5755 5753 5752 5754 5760 5764 5763 5764 5767 5767 5769 5773 5776 5779 5783 5785 5788 5793 5797 5801 5805 5808 5812 5816 5818 5821 5823 5825 5827 5829 5831 5832 5833 5835 5837 5840 5843 5846 5849 5852 5856 5859 5862
5842 5839 5837 5834 5831 5829 5826 5823 5820 5817 5815 5812 5808 5805 5802 5799 5797 5795 5791 5787 5784 5781 5778 5776 5774 5772 5771 5769 5767 5764 5762 5760 5758 5757 5755 5754 5752 5750 5749 5749 5749 5750 5749 5747 5746 5747 5750 5756 5757 5756 5759 5761 5762 5766 5770 5772 5776 5778 5782 5786 5791 5795 5799 5803 5807 5810 5814 5817 5819 5820 5822 5824 5826 5828 5829 5831 5833 5835 5838 5841 5844 5847 5851 5854 5857
5837 5835 5832 5830 5827 5825 5822 5818 5815 5812 5809 5807 5803 5800 5797 5794 5791 5789 5785 5782 5779 5775 5773 5770 5768 5766 5764 5762 5760 5758 5756 5754 5753 5751 5749 5748 5746 5743 5742 5742 5742 5742 5742 5741 5740 5740 5742 5747 5750 5750 5751 5754 5755 5759 5764 5766 5769 5771 5775 5779 5784 5789 5794 5797 5801 5805 5809 5812 5814 5815 5817 5819 5821 5824 5825 5826 5828 5831 5833 5836 5839 5842 5845 5849 5852
5833 5831 5828 5825 5822 5819 5817 5814 5811 5807 5804 5802 5798 5795 5792 5789 5785 5782 5779 5775 5772 5770 5767 5764 5762 5760 5758 5756 5754 5752 5750 5749 5747 5746 5744 5742 5740 5737 5735 5735 5735 5735 5735 5734 5734 5734 5735 5737 5742 5744 5745 5747 5749 5752 5757 5760 5762 5764 5768 5772 5777 5783 5788 5791 5796 5800 5804 5807 5809 5810 5812 5815 5817 5819 5821 5822 5824 5826 5829 5831 5834 5837 5840 5844 5848
5828 5825 5823 5821 5817 5814 5812 5809 5806 5802 5799 5797 5794 5790 5787 5785 5781 5777 5773 5769 5766 5764 5761 5759 5756 5754 5752 5750 5749 5747 5745 5744 5742 5740 5738 5736 5734 5731 5729 5728 5727 5728 5728 5727 5727 5727 5728 5729 5733 5736 5738 5740 5743 5746 5750 5753 5755 5758 5762 5766 5771 5777 5782 5786 5791 5795 5798 5802 5804 5805 5807 5810 5812 5814 5816 5817 5820 5822 5825 5827 5829 5832 5836 5840 5843
5823 5820 5818 5816 5813 5810 5807 5804 5801 5798 5794 5792 5789 5786 5783 5780 5777 5773 5769 5765 5761 5759 5756 5753 5751 5749 5747 5745 5743 5742 5740 5738 5737 5734 5732 5730 5727 5725 5723 5721 5720 5720 5720 5720 5720 5720 5721 5722 5725 5728 5731 5733 5737 5740 5744 5747 5750 5754 5757 5761 5766 5771 5776 5780 5785 5788 5791 5795 5798 5800 5802 5804 5807 5809 5811 5813 5816 5818 5821 5823 5826 5829 5832 5835 5838
5818 5816 5813 5810 5808 5805 5802 5799 5796 5793 5790 5787 5783 5781 5778 5775 5772 5768 5765 5761 5758 5755 5752 5749 5746 5744 5742 5740 5738 5736 5735 5733 5732 5729 5727 5724 5721 5718 5716 5714 5713 5713 5713 5713 5712 5712 5713 5715 5718 5721 5724 5727 5731 5733 5737 5741 5744 5748 5751 5754 5759 5765 5769 5773 5779 5782 5785 5789 5793 5795 5797 5799 5802 5805 5806 5809 5811 5814 5816 5819 5822 5825 5828 5831 5833
5813 5810 5808 5805 5803 5799 5797 5794 5791 5788 5785 5782 5778 5775 5772 5769 5766 5763 5759 5756 5754 5751 5749 5745 5743 5740 5737 5735 5734 5732 5730 5728 5727 5725 5722 5719 5715 5712 5709 5708 5706 5706 5706 5706 5705 5705 5706 5708 5711 5714 5717 5721 5725 5727 5731 5734 5737 5741 5744 5748 5753 5758 5762 5767 5772 5776 5780 5785 5788 5791 5793 5795 5797 5799 5802 5804 5807 5809 5812 5815 5818 5821 5823 5825 5828
5808 5805 5803 5800 5797 5794 5791 5788 5786 5783 5780 5777 5773 5770 5766 5762 5759 5756 5753 5750 5748 5746 5744 5742 5739 5736 5734 5731 5730 5728 5726 5724 5722 5720 5718 5714 5711 5708 5705 5702 5700 5699 5699 5699 5698 5698 5699 5701 5704 5707 5710 5715 5719 5721 5724 5727 5730 5735 5739 5743 5748 5753 5756 5761 5766 5771 5776 5780 5784 5787 5789 5790 5792 5795 5797 5800 5802 5805 5808 5811 5814 5816 5818 5820 5822
5803 5800 5797 5795 5792 5790 5787 5784 5781 5778 5776 5772 5769 5765 5761 5757 5753 5749 5747 5745 5743 5741 5740 5737 5735 5733 5730 5727 5726 5724 5722 5720 5717 5715 5713 5710 5706 5703 5700 5697 5695 5693 5691 5691 5691 5692 5693 5694 5697 5700 5703 5708 5712 5715 5718 5721 5724 5729 5733 5738 5743 5748 5752 5756 5761 5766 5771 5775 5778 5781 5784 5785 5787 5790 5793 5796 5798 5801 5805 5807 5809 5811 5813 5816 5818
5798 5795 5792 5789 5787 5784 5782 5779 5776 5773 5771 5768 5764 5760 5756 5752 5748 5745 5742 5740 5738 5737 5735 5734 5731 5729 5726 5724 5722 5720 5719 5716 5712 5710 5708 5705 5702 5699 5695 5692 5689 5687 5685 5684 5684 5686 5687 5688 5690 5694 5697 5700 5706 5710 5713 5715 5718 5723 5728 5733 5738 5743 5747 5752 5757 5762 5766 5768 5771 5776 5779 5781 5782 5786 5789 5792 5794 5797 5801 5803 5805 5806 5809 5811 5813
5792 5789 5787 5784 5781 5779 5777 5774 5771 5768 5765 5762 5758 5754 5750 5747 5743 5741 5738 5737 5735 5733 5731 5730 5728 5725 5723 5720 5718 5716 5715 5712 5708 5705 5703 5700 5696 5693 5690 5687 5684 5682 5679 5677 5677 5679 5681 5681 5684 5687 5690 5693 5699 5705 5707 5710 5713 5718 5723 5728 5734 5738 5742 5746 5751 5755 5758 5760 5764 5769 5773 5776 5778 5781 5785 5788 5790 5792 5796 5798 5800 5802 5804 5806 5808
5787 5784 5782 5779 5776 5774 5772 5769 5766 5763 5759 5756 5752 5749 5745 5742 5739 5736 5734 5733 5731 5729 5728 5726 5724 5721 5719 5717 5714 5713 5711 5708 5705 5702 5699 5696 5692 5688 5685 5682 5679 5676 5673 5670 5670 5671 5673 5675 5678 5681 5684 5688 5694 5699 5702 5705 5709 5713 5718 5723 5729 5734 5737 5740 5744 5748 5751 5754 5758 5763 5767 5771 5773 5776 5780 5783 5785 5787 5791 5793 5795 5798 5799 5801 5803
5783 5780 5777 5774 5771 5768 5766 5763 5760 5757 5753 5750 5746 5743 5740 5738 5735 5732 5731 5729 5727 5726 5724 5722 5720 5718 5716 5714 5712 5710 5708 5705 5702 5699 5695 5692 5688 5684 5680 5677 5674 5670 5667 5664 5664 5665 5667 5669 5672 5676 5680 5684 5689 5694 5698 5700 5704 5709 5713 5717 5723 5728 5731 5734 5737 5741 5746 5751 5754 5757 5762 5766 5768 5771 5775 5777 5779 5782 5786 5788 5791 5793 5795 5796 5798
5778 5776 5773 5770 5767 5764 5760 5757 5754 5751 5747 5744 5741 5738 5735 5733 5731 5729 5727 5726 5724 5722 5721 5719 5717 5715 5713 5711 5709 5707 5705 5703 5699 5695 5692 5689 5684 5680 5676 5673 5669 5665 5661 5659 5658 5659 5661 5664 5668 5671 5675 5679 5683 5689 5693 5696 5700 5704 5708 5712 5717 5721 5725 5729 5733 5736 5741 5745 5749 5752 5757 5761 5764 5767 5770 5772 5773 5777 5781 5784 5786 5789 5790 5791 5793
5774 5771 5768 5765 5763 5760 5756 5752 5748 5745 5742 5739 5737 5734 5731 5729 5727 5725 5723 5722 5720 5718 5717 5716 5713 5711 5710 5708 5706 5705 5703 5699 5696 5692 5689 5685 5681 5676 5672 5668 5665 5661 5657 5654 5654 5655 5657 5660 5663 5667 5670 5674 5678 5683 5688 5692 5695 5699 5703 5708 5713 5717 5721 5725 5729 5732 5735 5739 5744 5747 5752 5756 5759 5762 5765 5766 5769 5773 5777 5779 5781 5784 5785 5787 5789
5769 5767 5764 5761 5759 5756 5752 5748 5744 5740 5738 5735 5732 5729 5727 5725 5723 5721 5719 5718 5717 5715 5714 5712 5710 5708 5706 5705 5703 5702 5700 5697 5693 5689 5685 5682 5678 5673 5668 5664 5661 5657 5653 5650 5650 5652 5654 5656 5659 5662 5666 5669 5674 5678 5683 5687 5691 5695 5699 5704 5708 5712 5717 5721 5724 5727 5730 5735 5740 5743 5747 5752 5755 5757 5759 5761 5764 5769 5772 5774 5776 5779 5781 5783 5784